EST,Max TemperatureF,Mean TemperatureF,Min TemperatureF,Max Dew PointF,MeanDew PointF,Min DewpointF,Max Humidity, Mean Humidity, Min Humidity, Max Sea Level PressureIn, Mean Sea Level PressureIn, Min Sea Level PressureIn, Max VisibilityMiles, Mean VisibilityMiles, Min VisibilityMiles, Max Wind SpeedMPH, Mean Wind SpeedMPH, Max Gust SpeedMPH,PrecipitationIn, CloudCover, Events, WindDirDegrees
2013-1-1,56,53,50,51,48,44,100,86,71,30.15,30.07,29.96,10,10,7,13,6,16,0.02,8,Rain,249
2013-1-2,54,49,44,52,48,39,93,85,77,30.19,30.02,29.90,10,8,2,15,7,18,0.12,8,Rain,26
2013-1-3,44,39,34,41,38,32,93,85,76,30.27,30.19,30.14,10,8,5,12,6,14,0.09,7,Rain,19
2013-1-4,53,41,29,34,30,28,96,67,38,30.34,30.28,30.22,10,8,1,14,4,17,0.00,0,,282
2013-1-5,52,40,27,35,29,24,92,64,36,30.40,30.34,30.30,10,10,10,10,2,14,0.00,0,,347
2013-1-6,50,45,39,45,41,37,96,81,66,30.29,30.17,30.08,10,10,10,9,2,12,0.01,7,Rain,311
2013-1-7,56,46,36,45,36,30,92,65,38,30.43,30.32,30.16,10,10,8,18,7,22,0.00,1,,27
2013-1-8,63,49,35,50,41,31,93,77,60,30.43,30.38,30.35,10,9,2,12,4,14,0.00,2,,45
2013-1-9,71,57,43,55,51,41,96,77,57,30.42,30.38,30.35,10,10,8,9,2,12,0.00,5,,83
2013-1-10,68,59,49,52,47,37,96,70,44,30.49,30.44,30.41,10,8,1,20,7,25,0.00,2,,59
2013-1-11,73,60,47,66,59,40,93,82,71,30.41,30.26,30.17,10,7,1,14,5,17,0.37,6,Rain,179
2013-1-12,78,67,56,63,59,55,100,76,52,30.19,30.15,30.11,10,6,0,13,5,16,0.00,1,Fog,240
2013-1-13,77,66,54,62,57,52,93,77,60,30.18,30.14,30.10,10,6,0,16,5,20,0.00,0,Fog,212
2013-1-14,77,66,54,63,59,54,93,74,54,30.20,30.16,30.12,10,8,0,20,7,24,0.00,0,Fog,205
2013-1-15,76,65,53,64,57,52,100,80,60,30.18,30.14,30.07,10,4,0,12,5,16,T,5,Fog-Rain,128
2013-1-16,78,69,59,65,60,57,100,77,54,30.07,30.02,29.96,10,8,0,23,8,29,0.00,1,Fog,197
2013-1-17,78,61,44,63,55,40,100,74,48,29.99,29.90,29.76,10,6,0,22,10,28,1.27,5,Fog-Rain,92
2013-1-18,52,44,35,40,33,26,92,65,38,30.52,30.35,30.06,10,10,6,23,10,29,0.01,4,Rain,1
2013-1-19,61,47,32,42,33,25,89,63,36,30.51,30.38,30.21,10,10,3,10,3,13,0.00,1,,40
2013-1-20,67,54,41,44,39,31,96,61,26,30.19,30.10,30.01,10,10,7,20,5,24,0.00,0,,257
2013-1-21,65,50,34,44,38,33,92,65,37,30.09,30.00,29.91,10,10,9,18,5,24,0.00,0,,217
2013-1-22,52,40,28,30,19,12,72,48,23,30.26,30.15,29.97,10,10,10,16,8,22,0.00,0,,327
2013-1-23,45,35,25,26,13,4,69,46,22,30.39,30.29,30.14,10,10,10,14,6,17,0.00,0,,60
2013-1-24,50,37,24,37,23,7,76,55,33,30.52,30.24,30.01,10,10,10,28,13,38,0.00,0,,346
2013-1-25,38,30,22,32,23,9,89,68,46,30.53,30.30,30.14,10,9,5,15,7,18,0.06,6,Rain,353
2013-1-26,50,40,29,35,30,26,92,73,54,30.39,30.22,30.13,10,9,4,12,6,16,T,3,,350
2013-1-27,47,37,27,29,26,23,92,67,41,30.56,30.50,30.39,10,8,4,16,7,21,0.00,1,,42
2013-1-28,59,45,31,52,42,26,100,83,66,30.50,30.38,30.28,10,8,0,10,4,14,T,6,Fog,87
2013-1-29,77,63,48,59,53,46,100,75,50,30.27,30.22,30.14,10,5,0,16,6,21,0.00,1,Fog,236
2013-1-30,77,69,60,63,61,60,93,77,60,30.13,29.91,29.62,10,10,7,29,16,41,0.00,5,,183
2013-1-31,72,58,44,66,40,24,86,58,30,30.09,29.82,29.54,10,9,1,41,17,49,0.18,4,Rain,247